Regional Weather Roundup
Issued by NWS

Home | Current Version | Previous Version | Graphics & Text | Print | Product List | Glossary On
Versions: 1 2 3 4 5 6 7 8 9 10 11 12 13 14 15 16 17 18 19 20 21 22 23 24 25 26 27
000
ASUS45 KCYS 221410
RWRWY

WYOMING REGIONAL WEATHER ROUNDUP
NATIONAL WEATHER SERVICE CHEYENNE WY
800 AM MDT FRI JUL 22 2016

NOTE:  "FAIR" INDICATES FEW OR NO CLOUDS BELOW 12,000 FEET
WITH NO SIGNIFICANT WEATHER AND/OR OBSTRUCTIONS TO VISIBILITY.

WYZ001-221500-
YELLOWSTONE NATIONAL PARK

CITY           SKY/WX    TMP DP  RH WIND       PRES   REMARKS
LK YELLOWSTONE   N/A     54  46  74 W3        30.41F
W YELLOWSTONE  NOT AVBL

$$
WYZ002>013-054>058-071-098>099-221500-
NORTHERN WYOMING

CITY           SKY/WX    TMP DP  RH WIND       PRES   REMARKS
JACKSON        NOT AVBL
CODY           FAIR      73  39  29 SW7       30.15R
GREYBULL       FAIR      73  43  33 CALM      30.06F
WORLAND        FAIR      71  43  36 CALM      30.08F
SHERIDAN       FAIR      69  45  41 CALM      30.05S
BUFFALO        FAIR      83  39  21 CALM      30.12S
GILLETTE       FAIR      81  43  26 MISG      30.09F
HULETT         FAIR      79  46  31 CALM      30.11F
NEWCASTLE      FAIR      82  52  34 SE10G17   30.13S

$$
WYZ014>020-022>026-101>103-221500-
CENTRAL WYOMING

CITY           SKY/WX    TMP DP  RH WIND       PRES   REMARKS
BIG PINEY      FAIR      59  42  53 CALM      30.39S
PINEDALE       FAIR      57  43  58 CALM      30.40R
DUBOIS         FAIR      70  37  30 NW9       30.36S
LANDER         FAIR      67  42  40 CALM      30.21R
RIVERTON       FAIR      69  46  43 CALM      30.22R
CASPER         FAIR      70  46  42 SW8       30.23R
DOUGLAS          N/A    N/A N/A N/A MISG      30.20S

$$
WYZ021-027>030-104>119-221500-
SOUTHERN WYOMING

CITY           SKY/WX    TMP DP  RH WIND       PRES   REMARKS
EVANSTON       FAIR      65  43  44 S8        30.35S
KEMMERER         N/A     59  41  51 N6        30.38S
FORT BRIDGER   FAIR      69  44  39 E8        30.38R
ROCK SPRINGS   FAIR      66  44  45 CALM      30.35F
DIXON          FAIR      63  49  61 SE5       30.40S
RAWLINS        FAIR      65  45  48 CALM      30.38R
SARATOGA       FAIR      64  48  55 SE13      30.40F
LARAMIE        FAIR      57  46  66 S6        30.40S
CHEYENNE       FAIR      72  47  40 W9        30.29S
TORRINGTON     FAIR      74  60  61 CALM      30.14R
PINE BLUFFS    FAIR      70  55  60 CALM      30.22S

$$




USA.gov is the U.S. government's official web portal to all federal, state and local government web resources and services.